User: anonymous   Login
Location: Unspecified
(0.0000°N, 0.0000°E)
Time: 00:54:27
(UTC+00:00)
Language:

NANOSAT C BR1 - Orbit

View from above orbital plane
View from above orbital plane
View from above satellite
View from above satellite

Ground track
Ground track

The orbit data is extracted from the following two-line orbital elements,

1 40024U 14033Q   19017.77796803  .00000240  00000-0  30985-4 0  9991
2 40024  97.9126 299.7032 0011838 187.7640 172.3396 14.89732793248820
Epoch (UTC): 17 January 2019 18:40:16
Eccentricity: 0.0011838
inclination: 97.9126°
perigee height: 590 km
apogee height: 607 km
right ascension of ascending node: 299.7032°
argument of perigee: 187.7640°
revolutions per day: 14.89732793
mean anomaly at epoch: 172.3396°
orbit number at epoch: 24882

The dashed part of the orbit path shows where the satellite is in the earth's shadow,  

DLR